Location: Saratov
(51.5670°N, 46.0330°E)
Time: 14:23:44
(UTC+03:00)

ISS - Visible Passes

Search period start: 21 October 2019 00:00
Search period end: 31 October 2019 00:00
Orbit: 411 x 421 km, 51.6° (Epoch: 21 October)

Date Brightness Start Highest point End Pass type
(mag) Time Alt. Az. Time Alt. Az. Time Alt. Az.
25 Oct -0.9 05:30:35 10° S 05:32:43 16° SE 05:34:51 10° ESE visible
26 Oct -0.6 04:43:34 10° SSE 04:44:21 11° SE 04:45:07 10° ESE visible
27 Oct -2.0 05:28:54 10° SSW 05:31:53 30° SSE 05:34:53 10° E visible
28 Oct -1.5 04:41:42 15° S 04:43:24 21° SE 04:46:03 10° E visible
29 Oct -1.0 03:55:25 15° SE 03:55:25 15° SE 03:56:58 10° ESE visible
29 Oct -3.1 05:28:20 13° SW 05:31:10 53° SSE 05:34:27 10° E visible
30 Oct -2.7 04:41:55 35° S 04:42:35 39° SSE 04:45:46 10° E visible
